Time,TemperatureF,DewpointF,PressureIn,WindDirection,WindDirectionDegrees,WindSpeedMPH,WindSpeedGustMPH,Humidity,HourlyPrecipIn,Conditions,Clouds,dailyrainin,SoftwareType,DateUTC
2013-02-24 00:00:00,24.9,20.5,29.94,NNE,20,0.0,0.0,83,0.00,,,0.03,Wunderground v.1.15,2013-02-24 05:00:00,
2013-02-24 00:05:00,24.7,20.3,29.94,SW,221,0.0,0.0,83,0.00,,,0.00,Wunderground v.1.15,2013-02-24 05:05:00,
2013-02-24 00:10:00,24.4,20.3,29.94,West,271,0.0,0.0,84,0.00,,,0.00,Wunderground v.1.15,2013-02-24 05:10:00,
2013-02-24 00:15:00,24.1,20.2,29.94,West,271,0.0,0.0,85,0.00,,,0.00,Wunderground v.1.15,2013-02-24 05:15:00,
2013-02-24 00:20:00,24.0,20.1,29.94,WSW,240,0.0,0.0,85,0.00,,,0.00,Wunderground v.1.15,2013-02-24 05:20:00,
2013-02-24 00:25:00,23.8,19.9,29.94,WSW,242,0.0,1.0,85,0.00,,,0.00,Wunderground v.1.15,2013-02-24 05:25:00,
2013-02-24 00:30:00,23.6,19.8,29.95,SW,229,0.0,0.0,85,0.00,,,0.00,Wunderground v.1.15,2013-02-24 05:30:00,
2013-02-24 00:40:00,23.4,19.8,29.95,WSW,255,0.0,0.0,86,0.00,,,0.00,Wunderground v.1.15,2013-02-24 05:40:00,
2013-02-24 00:45:00,23.2,19.6,29.95,WSW,248,0.0,1.0,86,0.00,,,0.00,Wunderground v.1.15,2013-02-24 05:45:00,
2013-02-24 00:50:00,23.2,19.6,29.95,SW,232,0.0,3.0,86,0.00,,,0.00,Wunderground v.1.15,2013-02-24 05:50:00,
2013-02-24 00:55:00,23.1,19.5,29.95,WSW,257,0.0,3.0,86,0.00,,,0.00,Wunderground v.1.15,2013-02-24 05:55:00,
2013-02-24 01:00:00,23.1,19.5,29.95,NW,309,1.0,2.0,86,0.00,,,0.00,Wunderground v.1.15,2013-02-24 06:00:00,
2013-02-24 01:05:00,23.2,19.4,29.95,WSW,257,1.0,2.0,85,0.00,,,0.00,Wunderground v.1.15,2013-02-24 06:05:00,
2013-02-24 01:10:00,23.4,19.6,29.95,SW,236,1.0,1.0,85,0.00,,,0.00,Wunderground v.1.15,2013-02-24 06:10:00,
2013-02-24 01:15:00,23.3,19.2,29.95,WSW,252,0.0,1.0,84,0.00,,,0.00,Wunderground v.1.15,2013-02-24 06:15:00,
2013-02-24 01:20:00,23.2,19.1,29.95,WNW,293,0.0,0.0,84,0.00,,,0.00,Wunderground v.1.15,2013-02-24 06:20:00,
2013-02-24 01:25:00,23.1,19.0,29.95,WNW,284,0.0,0.0,84,0.00,,,0.00,Wunderground v.1.15,2013-02-24 06:25:00,
2013-02-24 01:30:00,23.1,19.0,29.95,West,276,0.0,0.0,84,0.00,,,0.00,Wunderground v.1.15,2013-02-24 06:30:00,
2013-02-24 01:35:00,23.0,18.9,29.96,WSW,245,0.0,1.0,84,0.00,,,0.00,Wunderground v.1.15,2013-02-24 06:35:00,
2013-02-24 01:45:00,22.7,18.6,29.96,West,264,0.0,0.0,84,0.00,,,0.00,Wunderground v.1.15,2013-02-24 06:45:00,
2013-02-24 01:50:00,22.6,18.5,29.96,West,280,0.0,0.0,84,0.00,,,0.00,Wunderground v.1.15,2013-02-24 06:50:00,
2013-02-24 01:55:00,22.5,18.4,29.96,SW,228,0.0,0.0,84,0.00,,,0.00,Wunderground v.1.15,2013-02-24 06:55:00,
2013-02-24 02:00:00,22.5,18.4,29.96,SW,229,0.0,0.0,84,0.00,,,0.00,Wunderground v.1.15,2013-02-24 07:00:00,
2013-02-24 02:10:00,22.8,18.7,29.96,WNW,288,1.0,1.0,84,0.00,,,0.00,Wunderground v.1.15,2013-02-24 07:10:00,
2013-02-24 02:15:00,22.8,18.7,29.97,West,270,1.0,1.0,84,0.00,,,0.00,Wunderground v.1.15,2013-02-24 07:15:00,
2013-02-24 02:20:00,22.8,18.7,29.97,WSW,239,0.0,1.0,84,0.00,,,0.00,Wunderground v.1.15,2013-02-24 07:20:00,
2013-02-24 02:25:00,22.8,18.7,29.97,West,281,0.0,1.0,84,0.00,,,0.00,Wunderground v.1.15,2013-02-24 07:25:00,
2013-02-24 02:35:00,23.0,18.9,29.97,NW,304,1.0,3.0,84,0.00,,,0.00,Wunderground v.1.15,2013-02-24 07:35:00,
2013-02-24 02:45:00,23.1,19.0,29.97,NNW,331,1.0,1.0,84,0.00,,,0.00,Wunderground v.1.15,2013-02-24 07:45:00,
2013-02-24 02:50:00,23.1,19.0,29.97,WNW,292,1.0,2.0,84,0.00,,,0.00,Wunderground v.1.15,2013-02-24 07:50:00,
2013-02-24 02:55:00,23.1,19.0,29.98,WSW,240,1.0,2.0,84,0.00,,,0.00,Wunderground v.1.15,2013-02-24 07:55:00,
2013-02-24 03:00:00,23.1,19.3,29.98,WNW,285,1.0,1.0,85,0.00,,,0.00,Wunderground v.1.15,2013-02-24 08:00:00,
2013-02-24 03:05:00,23.1,19.3,29.98,SSW,197,1.0,1.0,85,0.00,,,0.00,Wunderground v.1.15,2013-02-24 08:05:00,
2013-02-24 03:15:00,23.1,19.3,29.98,West,260,1.0,1.0,85,0.00,,,0.00,Wunderground v.1.15,2013-02-24 08:15:00,
2013-02-24 03:20:00,23.2,19.6,29.98,WSW,256,1.0,1.0,86,0.00,,,0.00,Wunderground v.1.15,2013-02-24 08:20:00,
2013-02-24 03:25:00,23.2,19.6,29.98,WSW,249,1.0,1.0,86,0.00,,,0.00,Wunderground v.1.15,2013-02-24 08:25:00,
2013-02-24 03:30:00,23.2,19.6,29.97,West,273,1.0,1.0,86,0.00,,,0.00,Wunderground v.1.15,2013-02-24 08:30:00,
2013-02-24 03:40:00,23.3,19.7,29.98,WSW,255,1.0,1.0,86,0.00,,,0.00,Wunderground v.1.15,2013-02-24 08:40:00,
2013-02-24 03:50:00,23.4,19.8,29.98,West,266,1.0,1.0,86,0.00,,,0.00,Wunderground v.1.15,2013-02-24 08:50:00,
2013-02-24 03:55:00,23.3,20.0,29.98,West,269,1.0,1.0,87,0.00,,,0.00,Wunderground v.1.15,2013-02-24 08:55:00,
2013-02-24 04:00:00,23.3,20.0,29.98,WSW,240,0.0,2.0,87,0.00,,,0.00,Wunderground v.1.15,2013-02-24 09:00:00,
2013-02-24 04:10:00,23.2,19.9,29.98,WSW,246,1.0,1.0,87,0.00,,,0.00,Wunderground v.1.15,2013-02-24 09:10:00,
2013-02-24 04:15:00,23.1,19.8,29.98,West,281,1.0,1.0,87,0.00,,,0.00,Wunderground v.1.15,2013-02-24 09:15:00,
2013-02-24 04:20:00,23.1,19.8,29.98,SSW,198,1.0,1.0,87,0.00,,,0.00,Wunderground v.1.15,2013-02-24 09:20:00,
2013-02-24 04:25:00,23.1,19.8,29.98,WNW,285,2.0,2.0,87,0.00,,,0.00,Wunderground v.1.15,2013-02-24 09:25:00,
2013-02-24 04:30:00,23.0,19.7,29.98,WSW,248,1.0,1.0,87,0.00,,,0.00,Wunderground v.1.15,2013-02-24 09:30:00,
2013-02-24 04:35:00,22.9,19.6,29.98,WSW,240,1.0,1.0,87,0.00,,,0.00,Wunderground v.1.15,2013-02-24 09:35:00,
2013-02-24 04:45:00,22.6,19.6,29.98,WSW,252,0.0,1.0,88,0.00,,,0.00,Wunderground v.1.15,2013-02-24 09:45:00,
2013-02-24 04:50:00,22.5,19.5,29.97,SW,218,1.0,1.0,88,0.00,,,0.00,Wunderground v.1.15,2013-02-24 09:50:00,
2013-02-24 04:55:00,22.3,19.3,29.98,WSW,240,0.0,1.0,88,0.00,,,0.00,Wunderground v.1.15,2013-02-24 09:55:00,
2013-02-24 05:00:00,22.2,19.2,29.98,WSW,240,0.0,1.0,88,0.00,,,0.00,Wunderground v.1.15,2013-02-24 10:00:00,
2013-02-24 05:05:00,22.0,19.0,29.98,WSW,249,0.0,1.0,88,0.00,,,0.00,Wunderground v.1.15,2013-02-24 10:05:00,
2013-02-24 05:15:00,22.0,19.3,29.98,West,266,0.0,1.0,89,0.00,,,0.00,Wunderground v.1.15,2013-02-24 10:15:00,
2013-02-24 05:20:00,22.1,19.4,29.98,WSW,257,0.0,0.0,89,0.00,,,0.00,Wunderground v.1.15,2013-02-24 10:20:00,
2013-02-24 05:25:00,22.2,19.5,29.98,WSW,252,0.0,0.0,89,0.00,,,0.00,Wunderground v.1.15,2013-02-24 10:25:00,
2013-02-24 05:30:00,22.3,19.6,29.99,West,262,0.0,0.0,89,0.00,,,0.00,Wunderground v.1.15,2013-02-24 10:30:00,
2013-02-24 05:35:00,22.4,19.6,29.99,West,266,0.0,0.0,89,0.00,,,0.00,Wunderground v.1.15,2013-02-24 10:35:00,
2013-02-24 05:40:00,22.4,19.4,29.99,SW,217,0.0,0.0,88,0.00,,,0.00,Wunderground v.1.15,2013-02-24 10:40:00,
2013-02-24 05:50:00,22.7,19.7,29.99,WSW,252,1.0,1.0,88,0.00,,,0.00,Wunderground v.1.15,2013-02-24 10:50:00,
2013-02-24 05:55:00,22.8,19.8,29.99,SW,228,1.0,1.0,88,0.00,,,0.00,Wunderground v.1.15,2013-02-24 10:55:00,
2013-02-24 06:00:00,22.9,19.6,29.99,West,262,1.0,1.0,87,0.00,,,0.00,Wunderground v.1.15,2013-02-24 11:00:00,
2013-02-24 06:05:00,22.9,19.6,29.99,SW,218,1.0,1.0,87,0.00,,,0.00,Wunderground v.1.15,2013-02-24 11:05:00,
2013-02-24 06:15:00,23.0,19.7,30.00,SW,232,0.0,1.0,87,0.00,,,0.00,Wunderground v.1.15,2013-02-24 11:15:00,
2013-02-24 06:20:00,23.1,19.8,30.00,West,268,1.0,1.0,87,0.00,,,0.00,Wunderground v.1.15,2013-02-24 11:20:00,
2013-02-24 06:25:00,23.2,19.9,30.00,WSW,245,1.0,1.0,87,0.00,,,0.00,Wunderground v.1.15,2013-02-24 11:25:00,
2013-02-24 06:30:00,23.2,19.6,30.00,West,266,1.0,1.0,86,0.00,,,0.00,Wunderground v.1.15,2013-02-24 11:30:00,
2013-02-24 06:40:00,23.3,19.7,30.01,West,259,1.0,2.0,86,0.00,,,0.00,Wunderground v.1.15,2013-02-24 11:40:00,
2013-02-24 06:45:00,23.3,19.7,30.01,West,270,1.0,2.0,86,0.00,,,0.00,Wunderground v.1.15,2013-02-24 11:45:00,
2013-02-24 06:50:00,23.3,19.7,30.01,WSW,252,1.0,1.0,86,0.00,,,0.00,Wunderground v.1.15,2013-02-24 11:50:00,
2013-02-24 06:55:00,23.3,19.7,30.01,WSW,246,1.0,1.0,86,0.00,,,0.00,Wunderground v.1.15,2013-02-24 11:55:00,
2013-02-24 07:00:00,23.1,19.5,30.01,West,277,1.0,1.0,86,0.00,,,0.00,Wunderground v.1.15,2013-02-24 12:00:00,
2013-02-24 07:10:00,22.8,19.5,30.01,WSW,242,1.0,1.0,87,0.00,,,0.00,Wunderground v.1.15,2013-02-24 12:10:00,
2013-02-24 07:20:00,22.7,19.4,30.01,WSW,256,1.0,1.0,87,0.00,,,0.00,Wunderground v.1.15,2013-02-24 12:20:00,
2013-02-24 07:25:00,22.5,19.2,30.01,WSW,255,1.0,1.0,87,0.00,,,0.00,Wunderground v.1.15,2013-02-24 12:25:00,
2013-02-24 07:30:00,22.4,19.4,30.02,West,264,1.0,1.0,88,0.00,,,0.00,Wunderground v.1.15,2013-02-24 12:30:00,
2013-02-24 07:35:00,22.3,19.3,30.02,WSW,239,0.0,1.0,88,0.00,,,0.00,Wunderground v.1.15,2013-02-24 12:35:00,
2013-02-24 07:45:00,22.2,19.2,30.02,WSW,239,0.0,0.0,88,0.00,,,0.00,Wunderground v.1.15,2013-02-24 12:45:00,
2013-02-24 07:50:00,22.3,19.3,30.02,West,262,0.0,0.0,88,0.00,,,0.00,Wunderground v.1.15,2013-02-24 12:50:00,
2013-02-24 07:55:00,22.5,19.5,30.02,West,269,1.0,1.0,88,0.00,,,0.00,Wunderground v.1.15,2013-02-24 12:55:00,
2013-02-24 08:05:00,23.0,20.0,30.02,SW,218,0.0,1.0,88,0.00,,,0.00,Wunderground v.1.15,2013-02-24 13:05:00,
2013-02-24 08:10:00,23.3,20.0,30.02,West,266,0.0,1.0,87,0.00,,,0.00,Wunderground v.1.15,2013-02-24 13:10:00,
2013-02-24 08:15:00,23.7,20.1,30.03,SW,225,1.0,1.0,86,0.00,,,0.00,Wunderground v.1.15,2013-02-24 13:15:00,
2013-02-24 08:20:00,24.1,20.5,30.03,WSW,246,2.0,2.0,86,0.00,,,0.00,Wunderground v.1.15,2013-02-24 13:20:00,
2013-02-24 08:30:00,24.7,20.8,30.03,West,266,1.0,1.0,85,0.00,,,0.00,Wunderground v.1.15,2013-02-24 13:30:00,
2013-02-24 08:35:00,25.4,21.2,30.03,WSW,241,1.0,1.0,84,0.00,,,0.00,Wunderground v.1.15,2013-02-24 13:35:00,
2013-02-24 08:40:00,25.7,21.3,30.03,SE,144,1.0,1.0,83,0.00,,,0.00,Wunderground v.1.15,2013-02-24 13:40:00,
2013-02-24 08:50:00,26.1,21.6,30.04,WNW,284,1.0,2.0,83,0.00,,,0.00,Wunderground v.1.15,2013-02-24 13:50:00,
2013-02-24 08:55:00,26.1,21.6,30.03,SW,217,2.0,6.0,83,0.00,,,0.00,Wunderground v.1.15,2013-02-24 13:55:00,
2013-02-24 09:00:00,26.3,21.6,30.04,West,259,3.0,3.0,82,0.00,,,0.00,Wunderground v.1.15,2013-02-24 14:00:00,
2013-02-24 09:05:00,26.6,21.8,30.04,West,262,2.0,3.0,82,0.00,,,0.00,Wunderground v.1.15,2013-02-24 14:05:00,
2013-02-24 09:10:00,26.7,21.9,30.04,NNW,343,2.0,2.0,82,0.00,,,0.00,Wunderground v.1.15,2013-02-24 14:10:00,
2013-02-24 09:20:00,27.5,22.4,30.04,SSE,158,2.0,3.0,81,0.00,,,0.00,Wunderground v.1.15,2013-02-24 14:20:00,
2013-02-24 09:25:00,28.2,23.1,30.04,WSW,248,2.0,3.0,81,0.00,,,0.00,Wunderground v.1.15,2013-02-24 14:25:00,
2013-02-24 09:30:00,28.7,23.3,30.04,West,260,2.0,3.0,80,0.00,,,0.00,Wunderground v.1.15,2013-02-24 14:30:00,
2013-02-24 09:40:00,29.6,23.6,30.04,WNW,295,2.0,3.0,78,0.00,,,0.00,Wunderground v.1.15,2013-02-24 14:40:00,
2013-02-24 09:45:00,29.6,23.3,30.04,WNW,292,3.0,3.0,77,0.00,,,0.00,Wunderground v.1.15,2013-02-24 14:45:00,
2013-02-24 09:50:00,30.1,24.1,30.04,WSW,244,3.0,3.0,78,0.00,,,0.00,Wunderground v.1.15,2013-02-24 14:50:00,
2013-02-24 09:55:00,30.5,24.5,30.05,SW,232,2.0,3.0,78,0.00,,,0.00,Wunderground v.1.15,2013-02-24 14:55:00,
2013-02-24 10:00:00,30.6,24.2,30.04,West,279,2.0,2.0,77,0.00,,,0.00,Wunderground v.1.15,2013-02-24 15:00:00,
2013-02-24 10:10:00,31.4,24.4,30.05,WSW,248,2.0,3.0,75,0.00,,,0.00,Wunderground v.1.15,2013-02-24 15:10:00,
2013-02-24 10:15:00,31.6,24.3,30.04,West,259,3.0,3.0,74,0.00,,,0.00,Wunderground v.1.15,2013-02-24 15:15:00,
2013-02-24 10:20:00,31.7,24.7,30.05,West,267,3.0,3.0,75,0.00,,,0.00,Wunderground v.1.15,2013-02-24 15:20:00,
2013-02-24 10:25:00,31.7,24.4,30.05,WNW,296,3.0,3.0,74,0.00,,,0.00,Wunderground v.1.15,2013-02-24 15:25:00,
2013-02-24 10:30:00,32.1,24.7,30.05,WNW,291,2.0,4.0,74,0.00,,,0.00,Wunderground v.1.15,2013-02-24 15:30:00,
2013-02-24 10:40:00,32.3,24.9,30.05,WNW,282,3.0,3.0,74,0.00,,,0.00,Wunderground v.1.15,2013-02-24 15:40:00,
2013-02-24 10:45:00,32.2,24.8,30.05,West,263,3.0,3.0,74,0.00,,,0.00,Wunderground v.1.15,2013-02-24 15:45:00,
2013-02-24 10:55:00,31.2,24.8,30.05,West,273,3.0,3.0,77,0.00,,,0.00,Wunderground v.1.15,2013-02-24 15:55:00,
2013-02-24 11:00:00,31.4,25.0,30.06,WSW,248,2.0,2.0,77,0.00,,,0.00,Wunderground v.1.15,2013-02-24 16:00:00,
2013-02-24 11:10:00,31.5,24.8,30.06,West,259,3.0,3.0,76,0.00,,,0.00,Wunderground v.1.15,2013-02-24 16:10:00,
2013-02-24 11:15:00,31.6,24.6,30.06,NW,309,3.0,4.0,75,0.00,,,0.00,Wunderground v.1.15,2013-02-24 16:15:00,
2013-02-24 11:20:00,31.6,24.6,30.06,WNW,290,3.0,3.0,75,0.00,,,0.00,Wunderground v.1.15,2013-02-24 16:20:00,
2013-02-24 11:30:00,32.1,25.1,30.06,WNW,284,2.0,3.0,75,0.00,,,0.00,Wunderground v.1.15,2013-02-24 16:30:00,
2013-02-24 11:35:00,32.7,25.6,30.06,West,281,2.0,3.0,75,0.00,,,0.00,Wunderground v.1.15,2013-02-24 16:35:00,
2013-02-24 11:40:00,33.1,25.4,30.06,West,273,3.0,4.0,73,0.00,,,0.00,Wunderground v.1.15,2013-02-24 16:40:00,
2013-02-24 11:45:00,33.7,26.0,30.06,NNW,338,3.0,4.0,73,0.00,,,0.00,Wunderground v.1.15,2013-02-24 16:45:00,
2013-02-24 11:50:00,34.3,25.9,30.06,NNE,32,2.0,2.0,71,0.00,,,0.00,Wunderground v.1.15,2013-02-24 16:50:00,
2013-02-24 11:55:00,34.2,25.4,30.06,WNW,300,3.0,3.0,70,0.00,,,0.00,Wunderground v.1.15,2013-02-24 16:55:00,
2013-02-24 12:05:00,34.7,25.9,30.06,NW,314,4.0,7.0,70,0.00,,,0.00,Wunderground v.1.15,2013-02-24 17:05:00,
2013-02-24 12:10:00,34.8,25.7,30.06,WNW,294,5.0,5.0,69,0.00,,,0.00,Wunderground v.1.15,2013-02-24 17:10:00,
2013-02-24 12:15:00,35.9,26.0,30.06,West,274,4.0,7.0,67,0.00,,,0.00,Wunderground v.1.15,2013-02-24 17:15:00,
2013-02-24 12:20:00,36.1,26.2,30.06,WSW,245,3.0,5.0,67,0.00,,,0.00,Wunderground v.1.15,2013-02-24 17:20:00,
2013-02-24 12:30:00,36.3,25.7,30.06,NNE,30,3.0,4.0,65,0.00,,,0.00,Wunderground v.1.15,2013-02-24 17:30:00,
2013-02-24 12:35:00,35.9,25.6,30.07,West,263,3.0,4.0,66,0.00,,,0.00,Wunderground v.1.15,2013-02-24 17:35:00,
2013-02-24 12:45:00,35.3,25.1,30.07,NNW,347,3.0,7.0,66,0.00,,,0.00,Wunderground v.1.15,2013-02-24 17:45:00,
2013-02-24 12:50:00,35.2,25.0,30.07,NNW,348,3.0,6.0,66,0.00,,,0.00,Wunderground v.1.15,2013-02-24 17:50:00,
2013-02-24 12:55:00,35.0,25.1,30.07,WNW,292,3.0,6.0,67,0.00,,,0.00,Wunderground v.1.15,2013-02-24 17:55:00,
2013-02-24 13:05:00,35.9,25.6,30.07,WNW,296,2.0,3.0,66,0.00,,,0.00,Wunderground v.1.15,2013-02-24 18:05:00,
2013-02-24 13:10:00,36.1,25.8,30.07,NNW,333,3.0,3.0,66,0.00,,,0.00,Wunderground v.1.15,2013-02-24 18:10:00,
2013-02-24 13:15:00,36.1,25.1,30.07,West,281,3.0,5.0,64,0.00,,,0.00,Wunderground v.1.15,2013-02-24 18:15:00,
2013-02-24 13:20:00,36.0,25.0,30.07,WSW,240,3.0,3.0,64,0.00,,,0.00,Wunderground v.1.15,2013-02-24 18:20:00,
2013-02-24 13:25:00,35.9,24.5,30.07,WNW,296,4.0,5.0,63,0.00,,,0.00,Wunderground v.1.15,2013-02-24 18:25:00,
2013-02-24 13:35:00,36.1,24.7,30.07,West,269,3.0,5.0,63,0.00,,,0.00,Wunderground v.1.15,2013-02-24 18:35:00,
2013-02-24 13:40:00,36.1,24.7,30.07,NW,308,3.0,4.0,63,0.00,,,0.00,Wunderground v.1.15,2013-02-24 18:40:00,
2013-02-24 13:45:00,35.7,24.7,30.07,NNW,338,4.0,9.0,64,0.00,,,0.00,Wunderground v.1.15,2013-02-24 18:45:00,
2013-02-24 13:50:00,35.6,25.0,30.07,West,264,4.0,4.0,65,0.00,,,0.00,Wunderground v.1.15,2013-02-24 18:50:00,
2013-02-24 13:55:00,35.6,25.0,30.07,NW,308,3.0,4.0,65,0.00,,,0.00,Wunderground v.1.15,2013-02-24 18:55:00,
2013-02-24 14:05:00,35.7,24.7,30.07,North,10,3.0,4.0,64,0.00,,,0.00,Wunderground v.1.15,2013-02-24 19:05:00,
2013-02-24 14:10:00,35.8,24.8,30.08,WNW,288,3.0,3.0,64,0.00,,,0.00,Wunderground v.1.15,2013-02-24 19:10:00,
2013-02-24 14:15:00,35.9,25.3,30.07,WNW,302,3.0,6.0,65,0.00,,,0.00,Wunderground v.1.15,2013-02-24 19:15:00,
2013-02-24 14:20:00,36.2,25.2,30.07,WNW,283,3.0,3.0,64,0.00,,,0.00,Wunderground v.1.15,2013-02-24 19:20:00,
2013-02-24 14:30:00,35.9,24.5,30.08,West,279,3.0,3.0,63,0.00,,,0.00,Wunderground v.1.15,2013-02-24 19:30:00,
2013-02-24 14:40:00,35.3,25.1,30.08,NW,314,3.0,3.0,66,0.00,,,0.00,Wunderground v.1.15,2013-02-24 19:40:00,
2013-02-24 14:45:00,35.6,25.0,30.08,NW,314,3.0,3.0,65,0.00,,,0.00,Wunderground v.1.15,2013-02-24 19:45:00,
2013-02-24 14:50:00,36.1,24.7,30.08,WSW,245,3.0,4.0,63,0.00,,,0.00,Wunderground v.1.15,2013-02-24 19:50:00,
2013-02-24 14:55:00,36.1,25.1,30.08,SW,236,2.0,4.0,64,0.00,,,0.00,Wunderground v.1.15,2013-02-24 19:55:00,
2013-02-24 15:05:00,35.6,24.2,30.08,WNW,295,3.0,8.0,63,0.00,,,0.00,Wunderground v.1.15,2013-02-24 20:05:00,
2013-02-24 15:10:00,35.4,24.4,30.08,West,276,3.0,4.0,64,0.00,,,0.00,Wunderground v.1.15,2013-02-24 20:10:00,
2013-02-24 15:15:00,35.2,24.2,30.08,WNW,288,3.0,4.0,64,0.00,,,0.00,Wunderground v.1.15,2013-02-24 20:15:00,
2013-02-24 15:20:00,35.2,24.6,30.08,WNW,297,2.0,2.0,65,0.00,,,0.00,Wunderground v.1.15,2013-02-24 20:20:00,
2013-02-24 15:25:00,35.1,24.9,30.08,West,277,2.0,2.0,66,0.00,,,0.00,Wunderground v.1.15,2013-02-24 20:25:00,
2013-02-24 15:35:00,34.9,25.8,30.09,West,266,1.0,2.0,69,0.00,,,0.00,Wunderground v.1.15,2013-02-24 20:35:00,
2013-02-24 15:40:00,34.9,25.4,30.09,WNW,287,1.0,1.0,68,0.00,,,0.00,Wunderground v.1.15,2013-02-24 20:40:00,
2013-02-24 15:45:00,35.0,25.1,30.09,WNW,300,2.0,2.0,67,0.00,,,0.00,Wunderground v.1.15,2013-02-24 20:45:00,
2013-02-24 15:50:00,35.1,25.6,30.09,WNW,283,1.0,1.0,68,0.00,,,0.00,Wunderground v.1.15,2013-02-24 20:50:00,
2013-02-24 15:55:00,35.1,24.9,30.09,SSW,197,1.0,3.0,66,0.00,,,0.00,Wunderground v.1.15,2013-02-24 20:55:00,
2013-02-24 16:00:00,35.2,24.6,30.10,West,276,3.0,3.0,65,0.00,,,0.00,Wunderground v.1.15,2013-02-24 21:00:00,
2013-02-24 16:10:00,35.3,24.3,30.10,WNW,292,2.0,2.0,64,0.00,,,0.00,Wunderground v.1.15,2013-02-24 21:10:00,
2013-02-24 16:15:00,35.3,25.1,30.10,West,281,2.0,3.0,66,0.00,,,0.00,Wunderground v.1.15,2013-02-24 21:15:00,
2013-02-24 16:20:00,35.3,24.3,30.10,West,281,2.0,3.0,64,0.00,,,0.00,Wunderground v.1.15,2013-02-24 21:20:00,
2013-02-24 16:25:00,35.2,24.6,30.10,NW,308,3.0,3.0,65,0.00,,,0.00,Wunderground v.1.15,2013-02-24 21:25:00,
2013-02-24 16:30:00,35.3,24.3,30.11,NW,309,3.0,3.0,64,0.00,,,0.00,Wunderground v.1.15,2013-02-24 21:30:00,
2013-02-24 16:40:00,35.3,24.3,30.11,West,276,2.0,2.0,64,0.00,,,0.00,Wunderground v.1.15,2013-02-24 21:40:00,
2013-02-24 16:45:00,35.3,24.3,30.11,WNW,300,2.0,2.0,64,0.00,,,0.00,Wunderground v.1.15,2013-02-24 21:45:00,
2013-02-24 16:50:00,35.4,24.4,30.11,WNW,298,2.0,4.0,64,0.00,,,0.00,Wunderground v.1.15,2013-02-24 21:50:00,
2013-02-24 16:55:00,35.3,24.3,30.11,WNW,298,2.0,4.0,64,0.00,,,0.00,Wunderground v.1.15,2013-02-24 21:55:00,
2013-02-24 17:00:00,35.3,24.3,30.11,WSW,245,2.0,2.0,64,0.00,,,0.00,Wunderground v.1.15,2013-02-24 22:00:00,
2013-02-24 17:10:00,35.2,25.0,30.12,West,264,2.0,2.0,66,0.00,,,0.00,Wunderground v.1.15,2013-02-24 22:10:00,
2013-02-24 17:15:00,35.2,24.6,30.12,NW,311,2.0,2.0,65,0.00,,,0.00,Wunderground v.1.15,2013-02-24 22:15:00,
2013-02-24 17:20:00,35.1,24.5,30.12,West,259,2.0,2.0,65,0.00,,,0.00,Wunderground v.1.15,2013-02-24 22:20:00,
2013-02-24 17:25:00,35.1,24.5,30.12,WNW,288,2.0,2.0,65,0.00,,,0.00,Wunderground v.1.15,2013-02-24 22:25:00,
2013-02-24 17:30:00,35.1,24.9,30.13,NW,321,1.0,3.0,66,0.00,,,0.00,Wunderground v.1.15,2013-02-24 22:30:00,
2013-02-24 17:40:00,35.0,25.1,30.13,WNW,285,1.0,1.0,67,0.00,,,0.00,Wunderground v.1.15,2013-02-24 22:40:00,
2013-02-24 17:45:00,34.8,25.0,30.13,WNW,283,2.0,3.0,67,0.00,,,0.00,Wunderground v.1.15,2013-02-24 22:45:00,
2013-02-24 17:50:00,34.8,25.0,30.13,WSW,245,1.0,1.0,67,0.00,,,0.00,Wunderground v.1.15,2013-02-24 22:50:00,
2013-02-24 18:00:00,34.4,24.6,30.13,WSW,252,1.0,1.0,67,0.00,,,0.00,Wunderground v.1.15,2013-02-24 23:00:00,
2013-02-24 18:05:00,34.2,24.7,30.14,West,274,0.0,1.0,68,0.00,,,0.00,Wunderground v.1.15,2013-02-24 23:05:00,
2013-02-24 18:15:00,33.7,24.6,30.14,WNW,283,0.0,1.0,69,0.00,,,0.00,Wunderground v.1.15,2013-02-24 23:15:00,
2013-02-24 18:20:00,33.6,24.5,30.14,NW,316,0.0,0.0,69,0.00,,,0.00,Wunderground v.1.15,2013-02-24 23:20:00,
2013-02-24 18:25:00,33.4,24.3,30.14,NW,316,0.0,0.0,69,0.00,,,0.00,Wunderground v.1.15,2013-02-24 23:25:00,
2013-02-24 18:30:00,33.3,24.6,30.14,NW,316,0.0,0.0,70,0.00,,,0.00,Wunderground v.1.15,2013-02-24 23:30:00,
2013-02-24 18:35:00,33.2,24.5,30.15,NW,316,0.0,0.0,70,0.00,,,0.00,Wunderground v.1.15,2013-02-24 23:35:00,
2013-02-24 18:45:00,33.0,24.3,30.15,NW,316,0.0,0.0,70,0.00,,,0.00,Wunderground v.1.15,2013-02-24 23:45:00,
2013-02-24 18:50:00,33.0,24.3,30.15,NW,316,0.0,0.0,70,0.00,,,0.00,Wunderground v.1.15,2013-02-24 23:50:00,
2013-02-24 18:55:00,32.9,25.5,30.16,NW,316,0.0,0.0,74,0.00,,,0.00,Wunderground v.1.15,2013-02-24 23:55:00,
2013-02-24 19:00:00,32.9,25.8,30.16,NW,316,0.0,0.0,75,0.00,,,0.00,Wunderground v.1.15,2013-02-25 00:00:00,
2013-02-24 19:10:00,32.9,26.5,30.16,West,278,0.0,0.0,77,0.00,,,0.00,Wunderground v.1.15,2013-02-25 00:10:00,
2013-02-24 19:15:00,33.0,26.6,30.16,WSW,253,0.0,0.0,77,0.00,,,0.00,Wunderground v.1.15,2013-02-25 00:15:00,
2013-02-24 19:20:00,33.0,26.9,30.16,WSW,252,0.0,0.0,78,0.00,,,0.00,Wunderground v.1.15,2013-02-25 00:20:00,
2013-02-24 19:25:00,33.0,26.9,30.16,WSW,250,0.0,0.0,78,0.00,,,0.00,Wunderground v.1.15,2013-02-25 00:25:00,
2013-02-24 19:30:00,33.0,27.2,30.16,SSW,197,0.0,0.0,79,0.00,,,0.00,Wunderground v.1.15,2013-02-25 00:30:00,
2013-02-24 19:35:00,32.9,27.1,30.17,SSW,203,0.0,0.0,79,0.00,,,0.00,Wunderground v.1.15,2013-02-25 00:35:00,
2013-02-24 19:45:00,32.8,27.0,30.17,SW,229,0.0,0.0,79,0.00,,,0.00,Wunderground v.1.15,2013-02-25 00:45:00,
2013-02-24 19:50:00,32.6,26.8,30.17,SW,229,0.0,0.0,79,0.00,,,0.00,Wunderground v.1.15,2013-02-25 00:50:00,
2013-02-24 19:55:00,32.5,27.0,30.17,SW,229,0.0,0.0,80,0.00,,,0.00,Wunderground v.1.15,2013-02-25 00:55:00,
2013-02-24 20:00:00,32.4,26.9,30.17,SW,229,0.0,0.0,80,0.00,,,0.00,Wunderground v.1.15,2013-02-25 01:00:00,
2013-02-24 20:05:00,32.2,27.0,30.17,SW,229,0.0,0.0,81,0.00,,,0.00,Wunderground v.1.15,2013-02-25 01:05:00,
2013-02-24 20:15:00,32.0,26.8,30.18,SW,229,0.0,0.0,81,0.00,,,0.00,Wunderground v.1.15,2013-02-25 01:15:00,
2013-02-24 20:20:00,31.9,26.7,30.18,SW,229,0.0,0.0,81,0.00,,,0.00,Wunderground v.1.15,2013-02-25 01:20:00,
2013-02-24 20:25:00,31.8,26.9,30.18,SW,229,0.0,0.0,82,0.00,,,0.00,Wunderground v.1.15,2013-02-25 01:25:00,
2013-02-24 20:30:00,31.7,26.5,30.18,SW,229,0.0,0.0,81,0.00,,,0.00,Wunderground v.1.15,2013-02-25 01:30:00,
2013-02-24 20:35:00,31.4,26.5,30.18,SW,229,0.0,0.0,82,0.00,,,0.00,Wunderground v.1.15,2013-02-25 01:35:00,
2013-02-24 20:45:00,30.7,26.1,30.18,SW,230,0.0,0.0,83,0.00,,,0.00,Wunderground v.1.15,2013-02-25 01:45:00,
2013-02-24 20:50:00,30.4,25.9,30.18,SW,229,0.0,0.0,83,0.00,,,0.00,Wunderground v.1.15,2013-02-25 01:50:00,
2013-02-24 20:55:00,30.1,25.8,30.18,SW,229,0.0,0.0,84,0.00,,,0.00,Wunderground v.1.15,2013-02-25 01:55:00,
2013-02-24 21:00:00,29.8,25.8,30.18,WSW,244,0.0,0.0,85,0.00,,,0.00,Wunderground v.1.15,2013-02-25 02:00:00,
2013-02-24 21:10:00,29.3,25.6,30.18,WSW,245,0.0,0.0,86,0.00,,,0.00,Wunderground v.1.15,2013-02-25 02:10:00,
2013-02-24 21:15:00,29.1,25.4,30.18,WSW,245,0.0,0.0,86,0.00,,,0.00,Wunderground v.1.15,2013-02-25 02:15:00,
2013-02-24 21:20:00,28.7,25.3,30.18,WSW,244,0.0,0.0,87,0.00,,,0.00,Wunderground v.1.15,2013-02-25 02:20:00,
2013-02-24 21:25:00,28.3,24.9,30.18,WSW,245,0.0,0.0,87,0.00,,,0.00,Wunderground v.1.15,2013-02-25 02:25:00,
2013-02-24 21:30:00,28.1,25.0,30.18,WSW,244,0.0,0.0,88,0.00,,,0.00,Wunderground v.1.15,2013-02-25 02:30:00,
2013-02-24 21:35:00,27.9,24.8,30.18,WSW,245,0.0,0.0,88,0.00,,,0.00,Wunderground v.1.15,2013-02-25 02:35:00,
2013-02-24 21:45:00,27.4,24.6,30.18,WSW,245,0.0,0.0,89,0.00,,,0.00,Wunderground v.1.15,2013-02-25 02:45:00,
2013-02-24 21:50:00,27.1,24.3,30.18,WSW,245,0.0,0.0,89,0.00,,,0.00,Wunderground v.1.15,2013-02-25 02:50:00,
2013-02-24 21:55:00,26.9,24.4,30.19,WSW,245,0.0,0.0,90,0.00,,,0.00,Wunderground v.1.15,2013-02-25 02:55:00,
2013-02-24 22:00:00,26.8,24.3,30.19,WSW,245,0.0,0.0,90,0.00,,,0.00,Wunderground v.1.15,2013-02-25 03:00:00,
2013-02-24 22:05:00,26.9,24.6,30.19,WSW,245,0.0,0.0,91,0.00,,,0.00,Wunderground v.1.15,2013-02-25 03:05:00,
2013-02-24 22:15:00,27.1,24.8,30.19,WSW,244,0.0,0.0,91,0.00,,,0.00,Wunderground v.1.15,2013-02-25 03:15:00,
2013-02-24 22:20:00,27.0,24.5,30.19,WSW,245,0.0,0.0,90,0.00,,,0.00,Wunderground v.1.15,2013-02-25 03:20:00,
2013-02-24 22:25:00,26.9,24.4,30.19,SW,227,0.0,0.0,90,0.00,,,0.00,Wunderground v.1.15,2013-02-25 03:25:00,
2013-02-24 22:30:00,27.1,24.8,30.19,WSW,250,0.0,0.0,91,0.00,,,0.00,Wunderground v.1.15,2013-02-25 03:30:00,
2013-02-24 22:40:00,26.7,24.2,30.19,WSW,250,0.0,0.0,90,0.00,,,0.00,Wunderground v.1.15,2013-02-25 03:40:00,
2013-02-24 22:50:00,26.2,23.9,30.19,WSW,250,0.0,0.0,91,0.00,,,0.00,Wunderground v.1.15,2013-02-25 03:50:00,
2013-02-24 22:55:00,25.9,23.6,30.19,WSW,250,0.0,0.0,91,0.00,,,0.00,Wunderground v.1.15,2013-02-25 03:55:00,
2013-02-24 23:00:00,25.6,23.3,30.19,WSW,250,0.0,0.0,91,0.00,,,0.00,Wunderground v.1.15,2013-02-25 04:00:00,
2013-02-24 23:05:00,25.5,23.5,30.19,WSW,250,0.0,0.0,92,0.00,,,0.00,Wunderground v.1.15,2013-02-25 04:05:00,
2013-02-24 23:15:00,25.4,23.4,30.19,WSW,250,0.0,0.0,92,0.00,,,0.00,Wunderground v.1.15,2013-02-25 04:15:00,
2013-02-24 23:20:00,25.2,23.2,30.19,NW,308,0.0,0.0,92,0.00,,,0.00,Wunderground v.1.15,2013-02-25 04:20:00,
2013-02-24 23:25:00,25.4,23.7,30.19,NW,308,0.0,0.0,93,0.00,,,0.00,Wunderground v.1.15,2013-02-25 04:25:00,
2013-02-24 23:30:00,25.4,23.7,30.19,NW,308,0.0,0.0,93,0.00,,,0.00,Wunderground v.1.15,2013-02-25 04:30:00,
2013-02-24 23:35:00,25.3,23.6,30.19,NW,308,0.0,0.0,93,0.00,,,0.00,Wunderground v.1.15,2013-02-25 04:35:00,
2013-02-24 23:40:00,25.3,23.6,30.19,NW,307,0.0,0.0,93,0.00,,,0.00,Wunderground v.1.15,2013-02-25 04:40:00,
2013-02-24 23:50:00,24.5,22.5,30.19,NW,308,0.0,0.0,92,0.00,,,0.00,Wunderground v.1.15,2013-02-25 04:50:00,
2013-02-24 23:55:00,24.1,22.1,30.19,NW,308,0.0,0.0,92,0.00,,,0.00,Wunderground v.1.15,2013-02-25 04:55:00,